Regional Weather Roundup
Issued by NWS Upton, NY

Current Version | Previous Version | Graphics & Text | Print | Product List | Glossary On
Versions: 1 2 3 4 5 6 7 8 9 10 11 12 13 14 15 16 17 18 19 20 21 22 23 24 25 26 27 28 29 30 31 32 33 34 35 36 37 38 39 40 41 42 43 44 45 46 47 48 49 50
000
ASUS41 KOKX 302304
RWROKX

REGIONAL WEATHER ROUNDUP
NATIONAL WEATHER SERVICE NEW YORK NY
700 PM EDT SUN AUG 30 2015

NOTE: "FAIR" INDICATES FEW OR NO CLOUDS BELOW 12,000 FEET WITH NO
SIGNIFICANT WEATHER AND/OR OBSTRUCTIONS TO VISIBILITY.

NYZ071-072-176-178-NJZ106-104-310000-
NEW YORK CITY METRO AREA


CITY           SKY/WX    TMP DP  RH WIND       PRES   REMARKS
CENTRAL PARK   MOCLDY    84  66  54 VRB3      30.03F
LAGUARDIA APRT MOCLDY    83  67  58 S9        30.00S
KENNEDY INTL   MOCLDY    80  70  71 S12       30.01F
NEWARK/LIBERTY MOCLDY    88  61  40 W10       30.00S
BRNX BOT. GARD   N/A     81  68  65 E3        30.01S
TETERBORO      MOCLDY    85  65  51 S3        29.99S
$$

NYZ177-179-078>081-310000-
LONG ISLAND NEW YORK

CITY           SKY/WX    TMP DP  RH WIND       PRES   REMARKS
FARMINGDALE    MOCLDY    79  69  71 SW10      30.02F
ISLIP          MOCLDY    78  67  68 SW12      30.01S
SHIRLEY        MOCLDY    77  68  73 SW9       30.03F
WESTHAMPTON    MOCLDY    76  69  79 SW7       30.04F
MONTAUK POINT    N/A     75  68  78 SW6       30.04S
$$

NYZ052-065-067-310000-
HUDSON VALLEY

CITY           SKY/WX    TMP DP  RH WIND       PRES   REMARKS
WHITE PLAINS   MOCLDY    79  68  69 S3        30.02S
NEWBURGH       MOCLDY    77  70  78 CALM      30.03S
MONTGOMERY     MOCLDY    78  70  76 CALM      30.01F
POUGHKEEPSIE   CLOUDY    76  71  85 CALM      30.00F
ALBANY         MOCLDY    79  64  60 SW5       30.00S
$$

NJZ001-105-106-008-010-013-015-019>022-104-310000-
NEW JERSEY

CITY           SKY/WX    TMP DP  RH WIND       PRES   REMARKS
NEWARK/LIBERTY MOCLDY    88  61  40 W10       30.00S
TETERBORO      MOCLDY    85  65  51 S3        29.99S
CALDWELL       MOCLDY    85  63  47 SW3       30.00F
MORRISTOWN     MOCLDY    86  64  48 W6        30.01S
SOMERVILLE     MOCLDY    86  64  47 CALM      29.99S
SUSSEX         CLOUDY    76  73  91 CALM      30.02S FOG
ANDOVER          N/A     77  71  82 CALM      30.03S
TRENTON        PTCLDY    85  65  51 SW8       30.02R
MILLVILLE      MOCLDY    79  69  71 S3        30.06S
ATLANTIC CITY  MOCLDY    80  65  59 S10       30.06S
WRIGHTSTOWN    PTCLDY    83  66  57 SW8       30.00S
TOMS RIVER     CLEAR     82  64  54 SW9       30.04R
BELMAR         PTCLDY    84  63  48 SW7       30.03R
$$

PAZ047>061-062-071-310000-
EASTERN PENNSYLVANIA

CITY           SKY/WX    TMP DP  RH WIND       PRES   REMARKS
PHILADELPHIA   NOT AVBL
ALLENTOWN      MOCLDY    82  63  52 W7        30.03S
SCRANTON       PTCLDY    82  63  52 SW8       30.04S
$$

CTZ002-004>006-009-010-012-RIZ004-006-007-MAZ004-011-015-310000-
SOUTHERN NEW ENGLAND
 IN CT

CITY           SKY/WX    TMP DP  RH WIND       PRES   REMARKS
BRADLEY INTL   LGT RAIN  75  68  78 SW14G25   30.00R
HARTFORD       MOCLDY    83  65  54 S6        29.99S
DANBURY        MOCLDY    80  64  58 S7        30.03S
WTRBRY/OXFORD  CLEAR     79  64  61 SW6       30.05S
BRIDGEPORT     MOCLDY    80  69  69 S12       30.01S
MERIDEN        MOCLDY    82  66  58 S8        30.00S
NEW HAVEN      MOCLDY    79  69  71 S7        30.01F
CHESTER        NOT AVBL
GROTON         PTCLDY    76  70  82 SW7       30.01S
WILLIMANTIC    CLOUDY    81  62  52 S6        30.00F

 IN RI

CITY           SKY/WX    TMP DP  RH WIND       PRES   REMARKS
PROVIDENCE     MOCLDY    80  64  58 SW10      30.00S
BLOCK ISLAND   PTCLDY    73  70  88 SW15      30.03S
WESTERLY       PTCLDY    76  68  76 SW6       30.02F

 IN MA

CITY           SKY/WX    TMP DP  RH WIND       PRES   REMARKS
BOSTON         MOCLDY    83  59  44 W10       29.99S
WORCESTER      MOCLDY    76  61  59 W5        30.04F
WESTFIELD      MOCLDY    81  64  56 N3        30.00S
PROVINCETOWN   PTCLDY    73  64  73 SW10      29.99S
NANTUCKET      PTCLDY    73  69  87 SW10      30.02F
$$

ANZ330-335-338-340-345-350-353-355-310000-
COASTAL MARINE OBSERVATIONS


STATION/POSITION TIME  SKY/WX   TEMP    WIND        PRES    VSBY  WAVE
                                AIR SEA DIR/SP/G                  HT/PER
                 (UTC)          (F)     (DEG/KT/KT) (MB)    (MI)  (FT/S)
NY HARB ENTRANCE 2150            78 77  200/ 16/ 17 1016.0          3/10
4S FIRE IS       NOT AVBL
20S FIRE ISLAND  2150            76 75  210/ 14/ 16 1016.8          3/10
GREAT SOUTH BAY  2230            76 78  240/ 14/ 16   N/A
23SW MTP         2250            75 73  230/ 12/ 14 1016.5          3/10
HUDSON CANYON    NOT AVBL
KINGS POINT      NOT AVBL
EXECUTION ROCKS  2200            80     190/  8/ 12   N/A
CENTRAL LI SOUND NOT AVBL
EASTERN LI SOUND 2200            75 71  220/  8/ 10   N/A
ROBBINS REEF     NOT AVBL
$$


>>>>>>>>>>>>>>>>>>>>>>>>>>>> KEY <<<<<<<<<<<<<<<<<<<<<<<<<<<
>                                                          <
>     SKY/WX - SKY CONDITION/PRESENT WEATHER               <
>     TMP    - TEMPERATURE IN FAHRENHEIT                   <
>     DP     - DEWPOINT IN FAHRENHEIT                      <
>     RH     - RELATIVE HUMIDITY IN PERCENT                <
>     WIND   - DIRECTION AND SPEED IN MPH                  <
>     PRES   - MEAN SEA LEVEL PRESSURE IN INCHES OF HG     <
>     WCI    - WIND CHILL INDEX                            <
>     VSB    - VISIBILITY IN MILES                         <
>     HX     - HEAT INDEX                                  <
>     TC     - TEMPERATURE IN CELSIUS                      <
>     VRB    - VARIABLE WIND DIRECTION                     <
>                                                          <
>>>>>>>>>>>>>>>>>>>>>>>>>>>> KEY <<<<<<<<<<<<<<<<<<<<<<<<<<<




USA.gov is the U.S. government's official web portal to all federal, state and local government web resources and services.